Regional Weather Roundup
Issued by NWS

Home | Current Version | Previous Version | Text Only | Print | Product List | Glossary Off
Versions: 1 2 3 4 5 6 7 8 9 10 11 12 13 14 15 16 17 18 19 20 21 22 23 24 25 26 27 28 29 30 31 32 33 34 35 36 37 38 39 40 41 42 43 44 45 46 47 48 49 50

000
ASUS44 KMEG 221600
RWRTN
TENNESSEE HOURLY STATE WEATHER ROUNDUP
NATIONAL WEATHER SERVICE MEMPHIS TN
1000 AM CST WED NOV 22 2017

TNZ002-004-019-021-049-052-054-088>092-221700-
WEST TENNESSEE

CITY           SKY/WX    TMP DP  RH WIND       PRES   REMARKS
MEMPHIS INTL   MOSUNNY   40  24  53 NE14      30.35R WCI  32
NWS MEMPHIS      N/A     38 N/A N/A MISG        N/A
JACKSON        SUNNY     39  25  57 N13       30.35S WCI  31
DYERSBURG      SUNNY     38  24  57 N15       30.38F WCI  29
$$

TNZ008-025-027-028-033-062-065-066-221700-
NORTH MIDDLE TENNESSEE

CITY           SKY/WX    TMP DP  RH WIND       PRES   REMARKS
NASHVILLE      MOSUNNY   40  25  55 NE10      30.32R WCI  33
CLARKSVILLE    SUNNY     37  23  56 N10       30.35S WCI  30
SMYRNA         SUNNY     40  27  59 N9        30.31S WCI  34
CROSSVILLE     MOSUNNY   40  33  76 VRB6      30.20S
$$

TNZ061-075-076-078-094-096-097-221700-
SOUTH MIDDLE TENNESSEE

CITY           SKY/WX    TMP DP  RH WIND       PRES   REMARKS
WINCHESTER     CLOUDY    39  34  81 N8        30.24S WCI  34
$$

TNZ017-018-042-046-047-221700-
NORTHEAST TENNESSEE

CITY           SKY/WX    TMP DP  RH WIND       PRES   REMARKS
TRI CITIES     MOSUNNY   47  35  63 NE6       30.18R
$$

TNZ012-013-036-069-073-074-221700-
CENTRAL EAST TENNESSEE

CITY           SKY/WX    TMP DP  RH WIND       PRES   REMARKS
KNOXVILLE      NOT AVBL
OAK RIDGE      SUNNY     46  35  65 E6        30.23R
$$

TNZ083-085-099-221700-
SOUTHEAST TENNESSEE

CITY           SKY/WX    TMP DP  RH WIND       PRES   REMARKS
CHATTANOOGA    MOSUNNY   51  35  54 N13       30.20R
$$

SKY/WX REPORTED AS FAIR MEANS FEW OR NO CLOUDS BELOW
12 THOUSAND FEET.





USA.gov is the U.S. government's official web portal to all federal, state and local government web resources and services.